Weather History for Pensacola, FL

Change the Weather History Date:

Saturday, November 3, 2012

  Actual Average Record
Temperature  
Mean Temperature 74 °F 64 °F  
Max Temperature 83 °F 74 °F 85 °F (1957)
Min Temperature 64 °F 55 °F 29 °F (1954)
Degree Days  
Heating Degree Days 0 3  
Month to date heating degree days 0 9  
Since 1 July heating degree days 29 47  
Cooling Degree Days 9 3  
Month to date cooling degree days 15 9  
Year to date cooling degree days 3019 2559  
Growing Degree Days 23 (Base 50)    
Moisture  
Dew Point 64 °F    
Average Humidity 72    
Maximum Humidity 93    
Minimum Humidity 51    
Precipitation  
Precipitation 0.00 in 0.16 in 7.48 in (1903)
Month to date precipitation T 0.49  
Year to date precipitation 63.31 56.48  
Snow  
Snow 0.00 in 0.00 in 0.00 in (2002)
Month to date snowfall 0.0 0.0  
Since 1 July snowfall 0.0 0.0  
Snow Depth 0.00 in    
Sea Level Pressure  
Sea Level Pressure 30.09 in    
Wind  
Wind Speed 6 mph (WSW)    
Max Wind Speed 14 mph    
Max Gust Speed 23 mph    
Visibility 9 miles    
Events      
T = Trace of Precipitation, MM = Missing Value Source: NWS Daily Summary

Daily Weather History Graph

Daily Weather History Graph

Search for Another Location

Airport:

Trip Planner

Search our weather history database for the weather conditions in past years. The results will help you decide how hot, cold, wet, or windy it might be!

Date:

Astronomy

Nov. 03, 2012 Rise Set
Actual Time 7:05 AM CDT 5:58 PM CDT
Civil Twilight 6:40 AM CDT 6:23 PM CDT
Nautical Twilight 6:11 AM CDT 6:52 PM CDT
Astronomical Twilight 5:43 AM CDT 7:20 PM CDT
Moon 9:45 PM CDT (11/3) 11:02 AM CDT (11/3)
Length of Visible Light 11h 43m
Length of Day
10h 53m
Waning Gibbous, 80% of the Moon is Illuminated
Nov 3
Waning Gibbous
Nov 6
Last Quarter
Nov 13
New
Nov 20
First Quarter
Nov 28
Full

Hourly Weather History & Observations

Time (CDT) Temp. Heat Index Dew Point Humidity Pressure Visibility Wind Dir Wind Speed Gust Speed Precip Events Conditions
12:53 AM 68.0 °F - 64.9 °F 90% 30.06 in 7.0 mi West 6.9 mph - N/A   Clear
1:53 AM 68.0 °F - 64.9 °F 90% 30.06 in 7.0 mi West 8.1 mph - N/A   Clear
2:53 AM 66.9 °F - 64.9 °F 93% 30.05 in 8.0 mi West 6.9 mph - N/A   Clear
3:53 AM 66.9 °F - 64.9 °F 93% 30.06 in 8.0 mi West 6.9 mph - N/A   Clear
4:53 AM 66.0 °F - 64.0 °F 93% 30.07 in 7.0 mi WNW 4.6 mph - N/A   Clear
5:53 AM 64.9 °F - 63.0 °F 93% 30.09 in 6.0 mi NW 3.5 mph - N/A   Clear
6:53 AM 64.0 °F - 62.1 °F 93% 30.11 in 4.0 mi WNW 3.5 mph - N/A   Clear
7:53 AM 66.0 °F - 64.0 °F 93% 30.12 in 4.0 mi NW 3.5 mph - N/A   Clear
8:53 AM 70.0 °F - 64.9 °F 84% 30.13 in 9.0 mi NW 5.8 mph - N/A   Clear
9:53 AM 75.0 °F - 64.0 °F 69% 30.14 in 10.0 mi Calm Calm - N/A   Clear
10:53 AM 79.0 °F - 64.0 °F 60% 30.14 in 10.0 mi NW 5.8 mph - N/A   Clear
11:53 AM 81.0 °F 82.2 °F 63.0 °F 54% 30.12 in 10.0 mi WNW 5.8 mph - N/A   Clear
12:53 PM 82.0 °F 83.8 °F 64.9 °F 56% 30.10 in 10.0 mi SSE 6.9 mph - N/A   Partly Cloudy
1:53 PM 82.0 °F 83.8 °F 64.9 °F 56% 30.08 in 10.0 mi South 9.2 mph - N/A   Partly Cloudy
2:53 PM 82.0 °F 83.8 °F 64.9 °F 56% 30.06 in 10.0 mi South 11.5 mph - N/A   Clear
3:53 PM 82.0 °F 83.0 °F 62.1 °F 51% 30.05 in 10.0 mi South 11.5 mph - N/A   Clear
4:53 PM 80.1 °F 81.5 °F 63.0 °F 56% 30.06 in 10.0 mi SSW 8.1 mph - N/A   Clear
5:53 PM 75.9 °F - 62.1 °F 62% 30.06 in 10.0 mi SW 5.8 mph - N/A   Clear
6:53 PM 73.0 °F - 64.9 °F 76% 30.07 in 10.0 mi SW 5.8 mph - N/A   Clear
7:53 PM 71.1 °F - 64.0 °F 78% 30.08 in 10.0 mi WSW 8.1 mph - N/A   Clear
8:53 PM 70.0 °F - 66.0 °F 87% 30.09 in 10.0 mi WSW 6.9 mph - N/A   Clear
9:53 PM 69.1 °F - 66.0 °F 90% 30.10 in 10.0 mi WSW 6.9 mph - N/A   Clear
10:53 PM 69.1 °F - 66.0 °F 90% 30.09 in 10.0 mi West 5.8 mph - N/A   Clear
11:53 PM 69.1 °F - 64.9 °F 87% 30.09 in 10.0 mi West 5.8 mph - N/A   Clear